PDT,Max TemperatureF,Mean TemperatureF,Min TemperatureF,Max Dew PointF,MeanDew PointF,Min DewpointF,Max Humidity, Mean Humidity, Min Humidity, Max Sea Level PressureIn, Mean Sea Level PressureIn, Min Sea Level PressureIn, Max VisibilityMiles, Mean VisibilityMiles, Min VisibilityMiles, Max Wind SpeedMPH, Mean Wind SpeedMPH, Max Gust SpeedMPH,PrecipitationIn, CloudCover, Events, WindDirDegrees
2013-10-1,82,71,59,56,52,45,69,53,36,29.98,29.92,29.85,10,10,10,13,5,16,0.00,0,,308
2013-10-2,81,70,58,52,46,40,72,50,28,29.97,29.91,29.86,10,10,8,14,6,17,0.00,0,,318
2013-10-3,75,64,53,43,39,36,59,43,27,30.01,29.94,29.88,10,9,6,15,4,17,0.00,0,,319
2013-10-4,83,69,54,41,34,30,55,35,15,30.09,30.02,29.95,10,10,7,16,6,21,0.00,0,,359
2013-10-5,85,69,53,35,29,23,41,27,12,30.18,30.13,30.09,10,10,7,18,7,22,0.00,0,,360
2013-10-6,91,71,51,36,27,15,54,31,7,30.15,30.06,29.98,10,10,10,13,4,24,0.00,0,,44
2013-10-7,88,73,58,36,31,27,33,22,11,29.97,29.91,29.83,10,10,10,13,4,16,0.00,0,,30
2013-10-8,84,70,55,36,30,25,34,24,13,29.87,29.78,29.68,10,10,9,13,6,17,0.00,0,,351
2013-10-9,69,62,54,45,40,33,62,46,30,29.79,29.68,29.62,10,7,2,22,8,25,T,5,Rain,325
2013-10-10,74,62,50,44,40,37,71,49,27,29.97,29.90,29.81,10,10,10,13,5,16,0.00,1,,106
2013-10-11,77,64,50,42,39,36,56,41,26,30.04,29.98,29.93,10,10,10,13,5,17,0.00,0,,347
2013-10-12,78,64,50,44,40,37,59,43,27,30.00,29.93,29.86,10,10,2,12,3,14,0.00,0,,36
2013-10-13,72,60,48,43,40,36,57,43,22,30.05,29.96,29.86,10,10,4,13,4,,0.00,0,,360
2013-10-14,79,66,52,43,40,38,59,42,25,30.10,30.03,29.96,10,10,7,14,5,17,0.00,0,,319
2013-10-15,81,67,52,43,40,36,59,41,23,30.03,29.99,29.92,10,10,9,13,4,16,0.00,0,,71
2013-10-16,84,67,50,39,33,24,59,36,13,30.11,30.04,29.99,10,10,9,13,3,17,0.00,0,,312
2013-10-17,82,68,53,35,31,27,41,30,18,30.08,30.01,29.94,10,10,9,14,5,17,0.00,0,,68
2013-10-18,84,69,53,41,35,30,47,32,17,30.04,30.00,29.95,10,10,10,13,5,17,0.00,0,,75
2013-10-19,86,70,53,42,35,28,45,31,16,30.07,30.01,29.96,10,10,7,12,4,16,0.00,0,,12
2013-10-20,83,68,52,39,36,33,50,34,18,30.00,29.95,29.88,10,10,7,10,4,13,0.00,0,,247
2013-10-21,86,70,53,41,35,27,46,31,15,29.97,29.92,29.86,10,10,9,13,4,15,0.00,0,,171
2013-10-22,85,69,52,46,37,31,46,32,17,30.00,29.94,29.87,10,8,6,12,3,15,0.00,0,,333
2013-10-23,81,69,56,46,41,34,48,37,25,29.93,29.89,29.84,10,7,6,12,4,15,0.00,0,,334
2013-10-24,82,68,53,44,40,37,55,38,20,30.05,29.96,29.91,9,8,5,9,3,13,0.00,0,,48
2013-10-25,78,66,54,47,43,37,59,45,31,30.15,30.09,30.05,9,7,5,9,2,12,0.00,0,,10
2013-10-26,78,65,51,47,44,39,61,47,32,30.13,30.07,30.00,8,6,4,10,2,14,0.00,0,,246
2013-10-27,82,67,52,45,42,33,66,45,23,30.00,29.84,29.70,10,7,1,25,4,31,0.00,1,,331
2013-10-28,65,59,53,51,43,39,72,58,44,29.89,29.79,29.75,10,6,1,21,7,28,0.03,7,Rain,304
2013-10-29,65,58,50,48,42,39,83,62,40,30.02,29.96,29.91,10,10,10,10,5,14,T,5,,3
2013-10-30,68,57,45,42,40,37,76,57,37,30.13,30.08,30.02,10,10,10,10,3,13,0.00,0,,54
2013-10-31,71,58,45,44,40,37,71,54,36,30.19,30.12,30.06,10,10,7,10,3,14,0.00,0,,190